CAPE
0 0 0 0 0 0 0 0 0 0 0 0 0 0 0 0 0 82 6 14 207 51 14 29 17 59 8 40 0 0 0 0 0 0 0 0 0 0 0 0 0 0 0 0 0 0 0 0 0 0 5 2 0 0
0 0 0 0 0 0 0 0 0 0 0 0 0 0 0 0 0 11 90 11 73 115 73 71 14 2 16 7 17 0 0 0 0 0 0 0 0 0 0 0 0 0 0 0 0 0 0 8 5 4 1 0 0 0
0 0 0 0 0 0 0 0 0 0 0 0 0 0 0 0 0 38 144 82 73 39 24 20 4 0 0 0 17 5 0 0 0 2 0 0 0 0 0 0 0 0 0 0 0 0 3 8 1 0 0 0 0 0
0 0 0 0 0 0 0 0 0 0 0 0 0 0 0 0 0 40 121 89 40 30 0 27 0 0 0 0 15 27 11 0 0 0 0 0 0 0 0 0 0 0 0 0 0 0 14 0 0 0 0 0 0 0
0 0 0 0 0 0 0 0 0 0 0 0 0 0 0 0 0 131 109 79 78 171 0 7 0 0 0 0 0 0 1 0 0 0 0 0 0 0 4 2 0 0 0 0 1 3 0 0 0 0 0 0 0 0
0 0 0 0 1 0 0 0 0 0 0 0 0 0 0 0 0 153 74 76 30 94 0 0 0 0 0 0 0 0 2 8 8 1 0 0 3 3 1 2 0 0 0 0 0 0 0 0 0 0 0 0 0 0
0 0 0 0 0 1 0 0 0 0 0 0 0 0 0 0 24 37 0 3 0 36 0 0 0 0 0 0 2 5 0 0 7 5 12 0 0 7 0 0 0 0 0 0 0 0 0 0 0 0 0 0 0 0
0 0 0 0 0 0 0 0 0 0 0 0 0 0 0 0 0 15 0 0 0 11 0 0 0 0 0 0 0 0 0 0 3 9 0 0 2 11 2 0 0 0 0 0 0 0 0 0 0 0 0 0 0 0
0 0 0 0 0 0 0 0 1 1 0 0 0 0 4 6 12 2 0 0 0 11 0 0 0 0 2 0 0 0 1 0 1 0 0 1 0 0 0 0 7 0 0 0 0 0 0 0 0 0 0 0 0 0
0 0 0 0 0 0 0 0 0 1 0 0 0 0 0 0 0 0 2 0 0 0 0 0 1 0 0 1 0 0 1 0 2 0 0 0 0 0 0 0 0 0 0 0 0 0 0 0 0 0 0 0 0 0
0 0 0 0 0 0 0 0 0 1 1 0 0 0 2 0 0 0 0 0 0 0 0 0 0 0 0 0 0 0 0 0 1 0 2 0 1 0 0 0 0 0 0 0 0 0 0 0 0 0 0 0 0 0
0 0 0 0 0 0 0 0 0 0 1 0 0 0 0 0 0 2 0 0 0 0 0 0 0 2 1 1 0 0 0 0 0 1 1 1 0 0 0 0 0 0 0 0 0 0 0 0 0 0 0 0 0 0
0 0 0 0 0 0 0 0 0 0 0 0 0 0 0 0 0 0 0 0 0 1 1 1 0 0 0 0 0 0 0 0 1 0 0 2 0 0 0 0 0 0 0 0 0 0 0 0 0 0 0 0 0 0
0 0 0 0 0 0 0 0 0 0 0 0 0 0 0 0 0 0 0 0 1 1 1 0 1 0 0 0 0 1 0 0 0 0 0 0 0 0 1 0 0 0 0 0 0 0 0 0 0 0 0 0 0 0
0 0 0 0 0 0 0 0 0 0 0 0 0 0 0 0 1 0 0 0 0 0 0 0 0 1 0 0 0 0 0 0 0 0 0 0 0 0 0 0 0 0 0 0 0 0 0 0 0 0 0 0 0 0
0 0 1 0 0 0 0 0 0 0 0 0 0 0 0 0 0 1 0 0 1 1 2 1 0 0 0 0 0 0 0 0 0 0 0 0 0 0 0 0 0 0 0 0 0 0 0 0 0 0 0 0 0 0
0 5 0 0 0 0 0 0 0 0 0 0 0 0 1 0 1 0 0 0 1 0 0 0 0 0 0 0 0 0 0 0 7 6 0 0 0 0 0 0 0 0 0 0 0 0 0 0 0 0 0 0 0 2
5 3 0 0 0 0 0 0 0 0 0 0 1 0 0 0 0 0 2 2 0 0 0 0 0 0 0 0 8 6 3 0 2 1 0 0 0 0 0 0 0 0 0 0 0 0 0 0 0 0 1 0 0 1
17 5 0 0 0 0 0 0 1 0 1 0 1 1 1 1 2 1 0 0 0 0 0 0 0 0 0 0 0 0 0 0 0 0 0 0 0 0 0 0 0 0 0 0 0 0 0 0 1 5 1 6 4 0
0 0 0 0 0 0 0 0 0 0 1 0 0 1 1 1 2 2 1 0 0 0 0 0 0 0 0 0 0 0 0 0 0 0 0 0 0 0 0 0 0 0 0 0 0 0 1 7 9 10 10 2 0 0
0 0 0 0 1 0 0 0 0 1 0 0 0 1 0 1 0 0 0 0 0 0 0 0 0 0 0 0 0 0 0 0 0 0 0 0 0 0 0 0 0 0 0 0 4 8 5 5 10 14 1 0 0 0
1 0 3 1 0 0 1 0 0 0 0 0 0 4 0 0 0 0 0 0 0 0 0 0 0 0 0 0 0 0 0 0 0 0 0 0 0 0 0 0 2 5 12 8 3 4 8 14 3 4 3 0 0 0
0 0 1 0 0 0 0 0 0 0 1 1 1 0 0 0 0 0 0 0 0 0 0 0 0 0 0 0 0 0 0 0 0 0 0 0 1 0 2 0 6 9 12 10 9 15 0 1 0 0 1 1 1 1
1 0 0 0 0 1 0 1 0 0 2 4 1 0 1 1 0 1 0 0 1 0 0 0 0 0 0 0 0 0 0 0 0 0 0 0 0 0 2 3 8 11 11 7 1 9 0 0 0 0 0 0 0 0
0 0 0 0 0 1 1 1 0 0 0 0 0 0 0 0 0 0 0 4 0 2 0 0 1 0 0 2 0 0 0 0 1 0 0 0 2 0 1 0 0 0 1 6 11 7 1 0 0 0 0 0 0 0
0 0 0 1 1 0 2 1 0 0 0 0 1 0 0 0 0 0 0 1 1 0 1 1 0 0 0 0 0 0 1 0 1 1 0 0 0 0 1 2 1 0 0 2 1 4 0 0 0 0 0 0 0 0
0 0 0 0 0 0 0 0 0 0 0 0 0 0 0 0 0 1 0 1 1 0 0 0 0 0 0 0 0 0 1 0 0 0 0 0 0 0 0 0 0 0 0 0 0 0 0 0 0 0 0 0 0 0
1 1 0 0 0 0 0 0 0 0 0 0 0 0 0 0 0 1 1 0 0 0 0 0 0 0 0 0 2 1 0 0 0 0 0 0 0 0 0 0 0 0 0 0 0 0 0 0 0 0 0 0 0 0
3 0 0 0 0 0 0 0 0 0 0 0 2 2 0 2 0 0 0 0 0 0 0 0 0 1 1 0 0 5 0 0 0 0 0 0 0 0 0 1 0 0 0 0 0 0 0 0 0 0 0 0 0 0
1 0 0 0 0 1 1 0 1 0 0 0 0 0 1 2 0 0 0 0 0 0 0 1 1 0 0 0 0 0 0 0 0 0 1 0 1 0 0 0 0 0 0 0 0 0 0 0 0 0 0 0 0 0
0 0 1 1 0 1 1 1 0 0 0 0 0 0 1 3 0 0 0 0 1 1 0 0 0 0 0 0 0 0 0 0 0 2 0 0 1 0 0 0 0 0 0 0 0 0 0 0 0 0 0 0 0 0
0 0 0 1 1 0 0 0 0 0 1 0 1 0 0 0 0 0 0 0 0 0 0 0 0 0 0 0 0 0 2 0 1 0 1 1 0 0 0 0 0 0 0 0 0 0 0 0 0 0 0 0 0 0
1 1 1 0 0 1 0 0 0 0 0 1 0 0 0 1 0 0 0 0 0 0 0 0 0 0 0 0 0 0 0 0 0 0 1 0 0 0 0 0 0 0 0 0 0 0 0 0 0 0 0 0 0 0
CIN
-0 -0 -0 -0 -0 -0 -0 -0 -0 -0 -0 -0 -0 -0 -0 -0 -0 -174 -53 -237 -54 -68 -100 -60 -41 -6 -14 -3 -0 -0 -0 -0 -0 -0 -0 -0 -0 -0 -0 -0 -0 -0 -0 -0 -0 -0 -0 -0 -0 -0 -12 -13 -0 -0
-0 -0 -0 -0 -0 -0 -0 -0 -0 -0 -0 -0 -0 -0 -0 -0 -0 -191 -81 -180 -140 -44 -93 -112 -184 -16 -120 -38 -9 -0 -0 -0 -0 -0 -0 -0 -0 -0 -0 -0 -0 -0 -0 -0 -0 -0 -0 -17 -1 -14 -1 -2 -0 -0
-0 -0 -0 -0 -0 -0 -0 -0 -0 -0 -0 -0 -0 -0 -0 -0 -0 -182 -94 -130 -84 -100 -86 -83 -15 -0 -0 -0 -66 -2 -0 -0 -0 -13 -0 -0 -0 -0 -0 -0 -0 -0 -0 -0 -0 -0 -4 -31 -53 -0 -0 -0 -0 -0
-0 -0 -0 -0 -0 -0 -0 -0 -0 -0 -0 -0 -0 -0 -0 -0 -0 -159 -82 -122 -115 -59 -0 -68 -0 -0 -0 -0 -65 -53 -18 -0 -0 -0 -0 -0 -0 -0 -0 -0 -0 -0 -0 -0 -0 -0 -3 -0 -0 -0 -0 -0 -0 -0
-0 -0 -0 -0 -0 -0 -0 -0 -0 -0 -0 -0 -0 -0 -0 -0 -0 -67 -92 -111 -103 -27 -0 -36 -0 -0 -0 -0 -0 -0 -8 -0 -0 -0 -0 -0 -0 -0 -4 -1 -0 -0 -0 -0 -0 -10 -0 -0 -0 -0 -0 -0 -0 -0
-0 -0 -0 -0 -0 -0 -0 -0 -0 -0 -0 -0 -0 -0 -0 -0 -0 -7 -12 -53 -117 -51 -0 -0 -0 -0 -0 -0 -0 -0 -0 -3 -0 -5 -0 -0 -2 -1 -2 -0 -0 -0 -0 -0 -0 -0 -0 -0 -0 -0 -0 -0 -0 -0
-0 -0 -0 -0 -0 -0 -0 -0 -0 -0 -0 -0 -0 -0 -0 -0 -28 -10 -0 -45 -0 -75 -0 -0 -0 -0 -0 -0 -0 -7 -9 -5 -6 -2 -4 -0 -0 -2 -0 -0 -0 -0 -0 -0 -0 -0 -0 -0 -0 -0 -0 -0 -0 -0
-0 -0 -0 -0 -0 -0 -0 -0 -0 -0 -0 -0 -0 -3 -0 -0 -0 -0 -0 -0 -0 -19 -0 -0 -0 -0 -0 -1 -0 -0 -0 -0 -1 -2 -0 -0 -0 -10 -3 -0 -0 -0 -0 -0 -0 -0 -0 -0 -0 -0 -0 -0 -0 -0
-0 -0 -0 -0 -0 -0 -0 -0 -0 -0 -0 -0 -0 -44 -29 -17 -5 -0 -0 -0 -0 -1 -0 -0 -0 -0 -0 -0 -0 -0 -0 -0 -0 -0 -0 -0 -0 -0 -0 -0 -0 -0 -0 -0 -0 -0 -0 -0 -0 -0 -0 -0 -0 -0
-0 -0 -0 -0 -0 -0 -0 -0 -0 -0 -0 -0 -8 -0 -0 -0 -0 -0 -19 -0 -0 -0 -0 -0 -0 -0 -0 -0 -0 -0 -0 -0 -0 -0 -0 -0 -0 -0 -0 -0 -0 -0 -0 -0 -0 -0 -0 -0 -0 -0 -0 -0 -0 -0
-0 -0 -0 -0 -0 -0 -0 -0 -0 -0 -0 -0 -0 -0 -0 -0 -0 -0 -0 -0 -0 -0 -0 -0 -0 -0 -0 -0 -0 -0 -0 -0 -0 -0 -0 -0 -0 -0 -0 -0 -0 -0 -0 -0 -0 -0 -0 -0 -0 -0 -0 -0 -0 -0
-0 -0 -0 -0 -0 -0 -0 -0 -0 -0 -0 -0 -0 -0 -0 -0 -0 -1 -0 -0 -0 -0 -0 -0 -0 -0 -0 -0 -0 -0 -0 -0 -0 -0 -0 -0 -0 -0 -0 -0 -0 -0 -0 -0 -0 -0 -0 -0 -0 -0 -0 -0 -0 -0
-0 -0 -0 -0 -0 -0 -0 -0 -0 -0 -0 -0 -0 -0 -0 -0 -0 -0 -0 -0 -0 -0 -0 -0 -0 -0 -0 -0 -0 -0 -0 -0 -0 -0 -0 -1 -0 -0 -0 -0 -0 -0 -0 -0 -0 -0 -0 -0 -0 -0 -0 -0 -0 -0
-0 -0 -0 -0 -0 -0 -0 -0 -0 -0 -0 -0 -0 -0 -0 -0 -0 -0 -0 -0 -0 -0 -0 -0 -0 -0 -0 -0 -0 -0 -0 -0 -0 -0 -0 -0 -0 -0 -0 -0 -0 -0 -0 -0 -0 -0 -0 -0 -0 -0 -0 -0 -0 -0
-0 -0 -0 -0 -0 -0 -0 -0 -0 -0 -0 -0 -0 -0 -0 -0 -0 -0 -0 -0 -0 -0 -0 -0 -0 -0 -0 -0 -0 -0 -0 -0 -0 -0 -0 -0 -0 -0 -0 -0 -0 -0 -0 -0 -0 -0 -0 -0 -0 -0 -0 -0 -0 -0
-0 -0 -0 -0 -0 -0 -0 -0 -0 -0 -0 -0 -0 -0 -0 -0 -0 -0 -0 -0 -0 -0 -0 -0 -0 -0 -0 -0 -0 -0 -0 -0 -0 -0 -0 -0 -0 -0 -0 -0 -0 -0 -0 -0 -0 -0 -0 -0 -0 -0 -0 -0 -0 -0
-0 -2 -0 -0 -0 -0 -0 -0 -0 -0 -0 -0 -0 -0 -0 -0 -0 -0 -0 -0 -0 -0 -0 -0 -0 -0 -0 -0 -0 -0 -0 -0 -6 -4 -13 -0 -0 -0 -0 -0 -0 -0 -0 -0 -0 -0 -0 -0 -0 -0 -0 -0 -0 -5
-1 -1 -0 -0 -0 -0 -0 -0 -0 -0 -0 -0 -0 -0 -0 -0 -0 -0 -0 -0 -0 -0 -0 -0 -0 -0 -0 -0 -0 -3 -26 -0 -30 -26 -0 -0 -0 -0 -0 -0 -0 -0 -0 -0 -0 -0 -0 -0 -0 -0 -0 -0 -0 -0
-1 -2 -0 -0 -0 -0 -0 -0 -0 -0 -0 -0 -0 -0 -0 -0 -0 -0 -0 -0 -0 -0 -0 -0 -0 -0 -0 -0 -0 -0 -0 -0 -0 -0 -0 -0 -0 -0 -0 -0 -0 -0 -0 -0 -0 -0 -0 -0 -5 -10 -4 -1 -1 -1
-0 -0 -0 -0 -0 -0 -0 -0 -0 -0 -0 -0 -0 -0 -0 -0 -0 -0 -0 -0 -0 -0 -0 -0 -0 -0 -0 -0 -0 -0 -0 -0 -0 -0 -0 -0 -0 -0 -0 -0 -0 -0 -0 -0 -0 -0 -0 -4 -5 -5 -2 -5 -0 -0
-0 -0 -0 -0 -0 -0 -0 -0 -0 -0 -0 -0 -0 -0 -0 -0 -0 -0 -0 -0 -0 -0 -0 -0 -0 -0 -0 -0 -0 -0 -0 -0 -0 -0 -0 -0 -0 -0 -0 -0 -0 -0 -0 -0 -2 -6 -13 -15 -14 -3 -10 -0 -0 -0
-0 -0 -0 -0 -0 -0 -0 -0 -0 -0 -0 -0 -0 -0 -0 -0 -0 -0 -0 -0 -0 -0 -0 -0 -0 -0 -0 -0 -0 -0 -0 -0 -0 -0 -0 -0 -0 -0 -0 -0 -3 -3 -4 -9 -16 -17 -11 -6 -8 -7 -9 -0 -0 -3
-0 -0 -0 -0 -0 -0 -0 -0 -0 -0 -0 -0 -0 -0 -0 -0 -0 -0 -0 -0 -0 -0 -0 -0 -0 -0 -0 -0 -0 -0 -0 -0 -0 -0 -0 -0 -0 -0 -1 -0 -5 -6 -7 -10 -10 -8 -0 -7 -0 -2 -7 -9 -4 -5
-0 -0 -0 -0 -0 -0 -0 -0 -0 -0 -0 -0 -0 -0 -0 -0 -0 -0 -0 -0 -0 -0 -0 -0 -0 -0 -0 -0 -0 -0 -0 -0 -0 -0 -0 -0 -0 -0 -1 -6 -3 -6 -6 -10 -8 -2 -2 -0 -0 -0 -0 -0 -1 -0
-0 -0 -0 -0 -0 -0 -0 -0 -0 -0 -0 -0 -0 -0 -0 -0 -0 -0 -0 -1 -0 -0 -0 -0 -3 -0 -0 -2 -0 -0 -0 -0 -0 -0 -0 -0 -0 -0 -0 -0 -0 -0 -1 -0 -0 -8 -0 -0 -0 -0 -0 -0 -0 -0
-0 -0 -0 -0 -0 -0 -0 -0 -0 -0 -0 -0 -0 -0 -0 -0 -0 -0 -2 -0 -0 -0 -0 -0 -0 -0 -0 -0 -0 -0 -0 -0 -0 -0 -0 -0 -0 -0 -0 -0 -0 -0 -0 -0 -0 -5 -0 -0 -0 -0 -0 -0 -0 -0
-0 -0 -0 -0 -0 -0 -0 -0 -0 -0 -0 -0 -0 -0 -0 -0 -0 -0 -0 -0 -0 -0 -0 -0 -0 -0 -0 -0 -0 -0 -0 -0 -0 -0 -0 -0 -0 -0 -0 -0 -0 -0 -0 -0 -0 -0 -0 -0 -0 -0 -0 -0 -0 -0
-0 -0 -0 -0 -0 -0 -0 -0 -0 -0 -0 -0 -0 -0 -0 -0 -0 -0 -0 -0 -0 -1 -0 -0 -0 -0 -1 -1 -1 -1 -0 -0 -0 -0 -0 -0 -0 -0 -0 -0 -0 -0 -0 -0 -0 -0 -0 -0 -0 -0 -0 -0 -0 -0
-0 -0 -0 -0 -0 -0 -0 -0 -0 -0 -0 -0 -0 -0 -0 -0 -0 -0 -0 -0 -1 -1 -0 -0 -0 -1 -1 -0 -1 -0 -0 -0 -0 -0 -0 -0 -0 -0 -0 -0 -0 -0 -0 -0 -0 -0 -0 -0 -0 -0 -0 -0 -0 -0
-0 -2 -0 -0 -0 -0 -0 -0 -0 -0 -0 -0 -0 -0 -0 -0 -0 -0 -0 -0 -0 -0 -1 -0 -1 -0 -0 -0 -0 -0 -0 -0 -0 -0 -0 -0 -0 -0 -0 -0 -0 -0 -0 -0 -0 -0 -0 -0 -0 -0 -0 -0 -0 -0
-0 -0 -0 -0 -0 -0 -0 -0 -0 -0 -0 -0 -0 -0 -0 -0 -0 -0 -0 -1 -1 -1 -0 -0 -0 -0 -0 -0 -0 -0 -0 -0 -2 -1 -0 -1 -1 -0 -0 -0 -0 -0 -0 -0 -0 -0 -0 -0 -0 -0 -0 -0 -0 -0
-0 -0 -0 -0 -0 -0 -0 -0 -0 -0 -0 -0 -0 -0 -0 -0 -0 -0 -0 -0 -1 -0 -0 -0 -0 -0 -0 -0 -0 -0 -2 -1 -1 -2 -1 -1 -0 -0 -0 -0 -0 -0 -0 -0 -0 -0 -0 -0 -0 -0 -0 -0 -0 -0
-0 -0 -0 -0 -0 -0 -0 -0 -0 -0 -0 -0 -0 -0 -0 -0 -0 -0 -0 -1 -0 -0 -0 -0 -0 -1 -0 -0 -0 -0 -0 -0 -0 -1 -1 -0 -0 -0 -0 -0 -0 -0 -0 -0 -0 -0 -0 -0 -0 -0 -0 -0 -0 -0
Wind_Speed
24 22 22 28 29 28 26 25 23 21 18 16 15 14 14 15 15 15 15 15 16 16 15 15 15 14 16 13 13 9 12 16 16 16 16 17 18 16 19 16 17 18 19 21 21 25 30 23 26 25 24 27 26 28
20 20 21 27 29 26 25 24 23 21 19 17 15 15 15 16 16 17 16 15 15 15 15 15 15 16 16 18 15 11 17 14 14 17 17 19 19 20 20 20 16 19 17 21 18 23 20 25 22 21 24 24 27 30
23 19 18 22 26 25 24 23 23 21 19 17 16 15 16 16 16 16 15 17 15 16 15 16 17 17 16 18 17 17 18 17 15 18 16 18 22 17 21 21 21 19 20 23 24 23 24 26 24 22 25 25 25 26
9 16 16 17 22 25 24 23 22 21 19 18 17 17 16 16 16 17 16 17 16 16 19 19 18 18 19 19 18 19 16 16 15 17 19 20 23 16 21 22 23 20 23 26 29 28 25 23 20 22 25 24 22 21
3 7 13 15 18 23 23 23 23 22 21 19 18 18 17 17 17 15 14 16 17 19 19 20 19 19 19 19 17 17 15 17 20 21 22 23 22 23 24 25 24 22 26 27 32 26 24 23 22 23 24 21 21 24
2 3 6 11 17 21 22 22 23 22 21 19 19 18 18 19 20 18 19 17 18 19 19 23 20 20 19 18 18 18 19 20 20 21 23 22 20 20 24 27 23 22 23 25 26 22 22 20 20 20 20 21 22 26
5 5 8 9 12 18 21 20 21 21 21 20 19 18 18 19 19 20 20 18 20 19 20 24 25 21 20 17 17 19 19 20 21 22 22 23 23 22 26 30 26 25 25 22 19 20 23 22 24 18 19 21 25 27
6 6 7 9 12 14 17 22 22 21 20 19 18 16 16 16 15 19 18 18 19 17 20 23 23 23 18 21 23 22 22 23 23 25 24 25 24 24 30 27 25 22 20 19 19 21 22 20 19 19 21 26 29 31
8 9 9 10 11 14 16 19 21 22 19 15 14 14 18 20 20 19 17 19 18 20 24 24 25 28 18 21 20 21 20 25 23 26 26 24 26 28 27 27 23 17 19 19 19 19 20 22 23 24 26 29 32 34
11 11 11 11 11 13 16 20 20 19 14 11 16 20 22 18 17 16 20 23 24 24 23 27 21 24 19 20 22 21 22 24 29 26 22 28 32 27 25 23 20 17 17 16 19 20 22 24 25 27 29 30 33 35
12 13 13 13 13 15 16 16 15 13 14 19 21 22 18 15 17 20 23 24 24 27 25 25 23 24 20 24 23 21 24 24 32 29 27 31 33 27 19 18 17 15 14 15 19 21 23 25 27 29 31 33 34 34
14 14 14 14 14 15 13 10 10 16 18 17 14 13 15 20 21 23 25 24 24 27 23 22 22 22 21 19 22 22 26 24 32 20 27 32 27 20 17 15 13 13 14 17 19 22 25 26 29 31 33 34 34 34
14 14 14 13 12 13 12 8 7 5 10 15 19 19 21 21 24 25 28 27 27 23 22 21 23 22 21 20 21 22 23 26 21 26 30 28 20 18 16 15 15 15 17 19 22 25 27 30 31 33 34 33 34 34
13 14 14 13 10 11 11 10 11 13 15 18 20 23 24 23 23 23 25 24 23 23 20 19 21 20 20 21 21 23 23 21 25 28 28 21 19 16 15 16 16 18 19 21 25 29 31 32 33 33 33 34 34 34
13 12 12 12 10 11 12 13 15 14 16 19 20 23 23 22 21 22 22 21 21 18 18 20 21 21 22 22 21 23 23 25 25 26 21 19 18 16 16 17 19 21 23 27 30 33 34 34 34 34 33 33 32 32
14 14 13 11 10 12 14 15 16 15 17 18 19 20 18 18 19 19 18 18 16 16 16 19 21 23 24 23 24 25 26 26 23 21 20 18 17 16 18 20 22 25 29 32 33 33 33 33 34 34 33 33 33 32
16 15 11 10 11 13 15 16 16 17 18 19 19 17 16 16 17 17 18 18 17 18 20 21 24 24 22 25 26 24 24 23 22 21 20 17 19 20 21 24 27 30 31 31 31 31 32 32 33 34 35 33 31 30
16 12 9 8 10 14 14 15 15 16 18 16 17 15 16 16 16 17 16 16 18 18 19 20 18 22 24 26 25 22 21 21 21 21 20 20 20 23 26 31 32 31 31 32 32 32 32 32 31 32 31 31 32 30
17 11 8 9 14 15 16 16 16 17 17 15 15 15 16 16 16 16 15 16 16 16 17 19 22 23 24 22 23 23 22 22 23 23 22 22 23 27 29 29 30 31 31 31 31 30 30 29 30 30 31 30 33 34
13 11 10 11 13 15 17 17 16 16 17 17 16 16 17 17 16 16 16 16 17 18 20 22 23 22 22 21 22 23 23 22 24 26 28 28 28 29 29 29 29 30 31 31 31 30 29 28 29 31 32 31 32 33
14 13 13 12 13 13 16 16 16 17 15 17 14 14 16 14 16 17 18 17 20 22 24 23 23 23 21 21 22 23 23 23 26 27 29 31 28 30 31 31 32 32 32 31 32 31 31 32 33 32 32 32 30 29
14 11 11 12 13 14 15 16 15 14 16 14 12 14 15 17 16 16 16 18 21 20 20 21 22 22 22 22 20 20 21 22 23 24 25 26 31 33 34 32 32 34 32 30 30 32 33 33 34 34 33 32 31 28
12 14 15 14 14 15 16 15 15 15 16 14 13 15 16 16 16 15 19 18 19 18 19 19 19 19 20 21 21 22 22 23 25 26 28 30 31 33 34 33 32 33 33 33 32 31 32 33 33 32 33 33 31 30
14 16 16 15 14 14 12 14 13 13 13 14 14 16 15 16 14 17 19 18 17 18 19 20 19 21 19 19 22 22 24 27 27 29 31 35 39 39 37 37 36 35 35 36 35 31 31 32 31 30 32 34 32 29
17 16 16 15 14 13 13 12 13 13 14 14 14 16 16 13 17 19 20 17 18 20 22 23 22 22 22 23 24 26 29 32 35 38 38 40 42 43 42 40 40 40 40 39 35 30 28 26 28 28 30 32 30 28
17 17 16 14 12 12 11 13 12 14 14 14 15 15 15 16 19 21 18 18 18 19 22 22 23 24 25 28 30 32 35 36 39 40 40 41 41 41 42 43 43 40 40 39 36 27 24 24 22 24 28 29 27 26
18 17 17 18 15 13 15 16 15 16 16 16 14 13 15 19 19 19 15 19 18 20 20 22 24 26 29 31 32 34 35 36 38 39 39 39 32 34 36 39 40 39 38 36 32 29 27 24 24 25 27 27 26 25
17 17 14 14 14 15 15 14 13 14 14 13 12 16 18 19 21 18 18 18 19 21 23 24 26 29 31 32 32 34 34 36 36 36 36 27 33 35 37 36 36 37 35 33 32 30 28 27 27 27 27 26 26 26
14 12 13 13 14 16 16 15 14 15 15 13 16 18 19 18 19 19 19 21 22 24 26 28 29 29 29 30 31 31 32 35 40 42 42 41 40 39 39 38 37 36 35 34 33 32 32 28 27 25 25 25 25 24
14 14 13 14 15 16 16 17 16 16 18 18 18 18 19 19 19 20 21 23 25 26 26 27 28 30 31 32 33 34 33 33 36 39 42 42 41 41 40 39 39 37 36 34 34 33 30 30 28 24 22 24 24 24
13 14 15 16 16 17 18 18 18 18 19 20 21 22 23 21 21 22 23 23 23 24 26 27 27 29 32 33 35 37 37 33 36 36 36 37 38 39 39 39 38 36 35 35 34 32 31 29 27 24 23 23 24 25
16 18 18 19 19 20 20 21 21 22 21 23 23 23 22 23 26 24 22 23 23 24 25 27 29 31 32 31 31 32 31 34 35 36 37 36 37 39 39 39 37 36 36 35 33 31 29 27 25 24 24 23 24 25
19 19 21 22 22 22 22 23 24 25 24 24 24 24 24 26 25 22 19 21 22 24 26 28 30 30 30 29 31 31 32 34 35 34 36 37 39 40 39 37 35 35 35 33 31 28 27 26 24 24 23 23 24 25
Wind_Direction
198 199 204 212 216 219 223 227 231 236 243 253 264 271 277 276 276 276 276 283 279 276 278 282 281 276 281 284 287 298 298 297 298 301 306 308 311 317 320 329 333 333 337 337 341 339 338 353 349 341 343 340 343 342
192 197 207 215 217 221 224 228 232 237 243 252 264 272 279 279 276 276 275 282 286 283 284 285 285 285 285 289 289 284 296 302 297 303 303 309 309 315 317 318 333 326 332 335 335 337 342 351 350 348 345 343 341 339
206 201 204 215 219 222 225 229 232 238 244 252 261 271 278 282 280 280 279 279 284 282 284 279 279 284 292 292 293 290 291 300 301 307 309 309 307 316 311 314 320 325 327 323 327 330 330 337 345 348 346 342 341 342
205 208 203 213 221 224 227 230 234 239 245 252 260 268 277 283 285 283 280 283 284 285 277 277 285 283 290 291 294 298 300 305 308 309 306 307 306 313 312 313 314 322 326 324 319 323 330 339 343 343 342 344 345 347
228 228 221 219 223 225 230 233 236 240 245 252 259 267 273 279 282 289 292 290 289 280 280 281 284 290 292 293 295 300 301 301 300 301 302 302 308 312 313 314 312 316 316 315 318 328 328 329 334 340 339 344 345 344
299 265 241 231 228 229 233 235 238 241 246 252 258 267 273 275 279 278 278 288 291 291 285 279 291 291 295 296 294 297 299 300 304 304 302 307 313 311 311 311 321 322 322 326 323 334 334 336 337 341 344 344 345 343
339 304 260 254 244 237 236 238 241 243 247 252 260 267 274 278 279 275 279 290 289 289 286 283 282 291 295 298 301 302 307 304 303 304 304 305 307 307 307 305 318 320 323 325 331 334 331 333 334 340 341 343 344 343
322 305 293 273 256 256 249 242 243 245 248 253 260 268 276 281 285 281 293 294 294 292 288 284 287 289 299 293 293 304 301 302 302 302 306 304 308 306 306 312 315 317 325 326 328 331 332 338 340 340 342 342 341 341
308 310 311 294 280 269 261 252 244 243 247 255 263 271 276 275 273 282 291 295 295 290 283 283 281 286 298 297 303 305 306 300 306 299 301 307 303 300 309 315 318 321 322 325 330 333 335 336 337 338 339 339 338 338
302 301 308 303 292 290 273 260 251 244 244 250 266 268 268 272 285 288 289 285 285 284 285 282 287 287 296 298 298 303 306 301 300 303 312 302 299 301 312 317 317 318 325 331 329 329 332 332 334 335 336 337 337 337
301 305 301 300 293 294 288 268 256 246 241 257 261 266 278 283 280 282 280 280 282 283 285 283 277 285 296 293 296 302 302 305 300 303 303 307 308 314 319 320 323 324 329 333 336 338 337 336 335 335 335 336 336 335
311 310 309 308 314 310 304 288 267 262 260 259 266 280 281 280 280 274 274 282 282 283 287 285 288 291 297 304 297 301 296 301 298 309 306 307 315 327 330 332 335 335 336 338 339 337 337 337 337 335 334 333 334 335
306 314 316 316 325 334 337 332 320 283 270 272 271 273 276 278 272 273 270 276 278 285 290 292 293 295 298 300 299 300 297 297 309 303 304 310 320 326 330 335 336 338 339 338 336 337 336 334 334 333 332 333 333 334
314 313 314 321 327 325 331 329 308 293 285 276 270 266 270 277 277 280 282 283 286 290 292 291 293 296 299 297 299 298 303 307 301 301 305 314 321 325 331 333 332 331 332 332 332 331 331 331 331 332 332 332 333 333
307 316 324 324 325 318 325 325 322 305 285 277 278 275 277 281 288 289 290 291 295 297 292 293 296 297 298 297 301 302 301 300 304 307 317 328 329 331 334 333 331 331 330 329 329 329 329 329 330 331 333 333 333 333
300 303 313 328 324 317 308 308 311 308 292 284 284 282 286 286 290 293 297 295 302 303 305 303 296 296 295 298 298 298 300 301 311 317 323 330 331 332 330 331 330 329 327 326 327 328 328 329 330 331 333 333 333 334
298 303 319 325 319 318 317 308 303 297 289 286 283 287 290 293 294 299 301 302 307 302 296 299 294 294 303 299 297 303 303 309 316 321 326 329 327 327 327 327 326 325 326 327 328 329 329 331 331 332 331 335 336 338
306 320 331 338 326 318 316 310 303 299 291 287 285 288 295 297 297 299 307 310 307 307 307 302 307 299 298 298 301 308 312 317 320 321 322 326 327 327 325 324 325 326 327 328 329 329 330 331 331 331 333 335 336 338
310 318 319 314 312 311 306 304 303 295 296 292 294 295 297 299 305 309 312 314 315 317 311 308 302 301 303 308 309 312 315 317 317 319 322 324 324 324 325 327 328 327 328 329 330 330 330 331 332 333 334 335 334 336
329 322 313 309 310 307 299 300 304 299 292 293 295 294 296 298 303 306 308 312 309 309 306 302 303 310 311 316 319 319 320 323 320 318 318 323 327 328 328 328 329 329 329 329 329 329 330 331 333 334 335 335 334 335
313 302 298 297 306 312 305 300 300 301 301 297 299 300 301 306 304 303 304 314 306 303 301 306 308 312 321 323 325 326 325 325 320 321 321 322 330 331 330 329 328 327 326 327 326 328 329 328 332 334 334 333 335 335
299 297 289 292 298 299 298 306 304 306 301 302 298 302 302 299 306 311 319 312 310 313 316 319 320 322 323 324 331 333 333 332 331 331 331 330 326 327 327 329 328 325 325 326 327 327 328 330 331 332 332 332 332 334
284 278 274 284 288 288 293 295 296 302 296 296 301 300 301 305 312 320 312 318 320 328 331 330 334 337 334 334 334 333 333 332 329 331 331 330 330 330 330 330 330 327 325 325 327 326 328 329 329 330 330 329 330 332
278 270 265 268 279 282 293 297 302 302 308 300 299 300 306 309 321 314 312 320 330 339 338 336 338 333 336 337 335 337 340 337 333 332 332 329 326 325 326 325 324 323 323 325 324 322 325 326 329 331 329 327 327 330
265 263 264 266 279 281 285 293 297 301 299 299 300 304 309 322 311 312 314 324 332 334 335 338 341 340 336 335 335 335 338 334 328 324 326 326 324 323 323 325 325 325 325 321 319 316 317 324 327 329 327 325 326 330
258 261 264 270 272 282 290 291 297 299 301 303 306 314 318 314 310 311 321 331 337 339 339 343 340 336 333 333 328 327 327 330 327 323 325 326 325 324 323 323 325 330 336 335 334 330 331 333 334 335 329 326 328 331
252 255 256 263 273 287 288 290 294 297 299 305 314 317 319 313 314 323 340 339 337 339 345 343 338 333 329 329 330 329 329 330 328 326 326 326 333 336 334 329 329 334 337 338 338 337 336 337 336 334 329 327 329 333
257 262 271 273 284 297 301 302 306 310 316 319 322 314 316 317 319 331 338 341 341 339 338 337 336 333 331 330 330 330 332 334 333 333 332 334 337 337 337 336 336 336 338 338 337 336 335 334 333 330 329 328 329 332
276 285 285 292 296 298 300 307 310 317 321 323 318 317 321 330 333 334 337 338 337 336 332 332 332 335 335 334 336 338 338 336 330 326 325 325 327 330 335 335 335 335 335 334 333 333 331 331 330 330 328 329 330 333
284 291 298 302 304 308 313 313 317 321 322 322 325 326 325 329 334 337 336 334 332 333 334 334 335 334 333 333 333 334 337 339 336 330 327 327 327 330 331 331 332 332 333 332 331 330 330 328 327 330 331 331 332 332
309 309 308 310 316 320 321 320 321 322 323 323 324 321 320 324 328 334 333 334 336 336 334 335 336 337 335 333 332 331 331 336 337 336 336 334 333 332 332 332 332 331 330 329 328 328 328 328 328 329 330 332 333 334
313 312 314 314 317 321 323 321 321 318 320 318 318 322 322 322 321 328 335 336 336 335 337 337 334 334 337 338 338 338 338 338 339 339 338 338 337 335 334 332 331 330 328 326 325 325 326 327 328 328 329 331 332 334
317 319 317 316 317 318 323 322 319 318 318 318 319 322 322 322 321 331 341 342 340 338 337 336 337 338 339 342 341 342 343 342 341 342 342 341 341 339 337 336 334 331 329 326 325 326 325 325 326 327 329 331 333 335